Home   Weather   Dickinson   Past weeks

Flag for USA Past Weather in Dickinson, North Dakota, USA — Yesterday and Last 2 Weeks

Now
77 °F

Clear.


Feels Like: 78 °F
Forecast: 53 / 77 °F
Wind: 12 mph from Northwest

Location: Dickinson Municipal Airport

Current Time: Aug 19, 2017 at 8:22:13 pm

Latest Report: Aug 19, 2017 at 6:56 pm


Visibility: 10 mi

Pressure: 29.80 "Hg (27.39 "Hg at 735m altitude)

Humidity: 39%

Dew Point: 50 °F

Location of DickinsonLocation

Past Weather in Dickinson — Graph

°F

Dickinson Temperature Yesterday

Maximum temperature yesterday: 83 °F (at 2:56 pm)
Minimum temperature yesterday: 53 °F (at 4:56 am)
Average temperature yesterday: 68 °F

High & Low Weather Summary for the Past Weeks

 TemperatureHumidityPressure
High89 °F (Aug 19, 2:56 pm)100% (Aug 7, 3:56 am)30.23 "Hg (Aug 7, 3:56 am)
Low45 °F (Aug 7, 5:56 am)21% (Aug 19, 2:56 pm)29.73 "Hg (Aug 19, 10:56 am)
Average63 °F75%29.97 "Hg
* Reported Aug 4 6:56 pm — Aug 19 6:56 pm, Dickinson. Weather by CustomWeather, © 2017

Note: Actual official high and low records may vary slightly from our data, if they occured in-between our weather recording intervals... More about our weather records

Advertising

Dickinson Weather History for the Previous 24 Hours

Scroll right to see more
 ConditionsComfort  
Time TempWeatherWind HumidityBarometerVisibility
6:56 pm
Sat, Aug 19
77 °FClear.12 mph39%29.80 "Hg10 mi
5:56 pm79 °FSunny.14 mph35%29.78 "Hg10 mi
4:56 pm81 °FSunny.17 mph30%29.77 "Hg10 mi
3:56 pm85 °FSunny.21 mph21%29.74 "Hg10 mi
2:56 pm89 °FSunny.21 mph21%29.73 "Hg10 mi
1:56 pm87 °FSunny.18 mph24%29.73 "Hg10 mi
12:56 pm85 °FSunny.18 mph27%29.74 "Hg10 mi
11:56 am83 °FSunny.16 mph31%29.73 "Hg10 mi
10:56 am80 °FSunny.12 mph34%29.73 "Hg10 mi
9:56 am77 °FSunny.12 mph40%29.73 "Hg10 mi
8:56 am70 °FSunny.10 mph55%29.73 "Hg10 mi
7:56 am64 °FSunny.13 mph68%29.74 "Hg10 mi
6:56 am59 °FSunny.9 mph78%29.74 "Hg10 mi
5:56 am58 °FSunny.15 mph78%29.74 "Hg10 mi
4:56 am58 °FSunny.12 mph81%29.75 "Hg10 mi
3:56 am59 °FClear.10 mph78%29.77 "Hg10 mi
2:56 am59 °FClear.9 mph78%29.79 "Hg10 mi
1:56 am61 °FClear.10 mph72%29.81 "Hg10 mi
12:56 am61 °FClear.10 mph75%29.83 "Hg10 mi
11:56 pm
Fri, Aug 18
62 °FClear.10 mph73%29.85 "Hg10 mi
10:56 pm63 °FClear.9 mph70%29.85 "Hg10 mi
9:56 pm62 °FClear.9 mph73%29.86 "Hg10 mi
8:56 pm67 °FClear.10 mph59%29.86 "Hg10 mi
Weather by CustomWeather, © 2017

See weather overviewHow to use our weather pages